sat.trackr.live / text

‹ back to catalog

STARLINK-36939

NORAD 68034 · 2026-040V

PAYLOAD ACTIVE UNKNOWN

§ Identity

Operator
Country
US
Launch date
2026-03-01
Launch site
AFWTR
Launch vehicle
Mass (kg)
RCS (m²)

Purposes: comms

External: N2YO · Heavens-Above · Gunter

§ Orbital elements

Epoch: 2026-05-24T19:42:05.127552Z

Period
93.91 min
Inclination
97.2847°
Eccentricity
0.0001759
Mean motion
15.33458225 rev/d
Perigee alt
464.3 km
Apogee alt
466.7 km
Semi-major
6,843.6 km
B*
5.2266e-4
RAAN
93.8909°
Arg perigee
92.4949°
Mean anomaly
267.6495°
Rev number
1,313

§ Raw data

STARLINK-369391 68034U 26040V   26144.82089268  .00016843  00000+0  52266-3 0  99982 68034  97.2847  93.8909 0001759  92.4949 267.6495 15.33458225 13132

JSON: /api/v1/satellites/68034 · /tle

For live sub-satellite position, see the globe view (requires WebGL).

§ Visibility from observer

Set your observer location to see the next 7 days of passes ≥ 10°. The values pass through the URL so the page stays shareable.

No JS? Fill the form by hand. The geolocation button needs JavaScript.